Location: Chippewa Lake
(41.0698°N, 81.9010°W)
Time: 02:01:52
(UTC+00:00)

Cosmos 1633 Rocket - Pass Details

Date: 09 May 2021
Orbit: 608 x 623 km, 82.5° (Epoch: 24 June)

Event Time Altitude Azimuth Distance (km) Brightness Sun altitude
Rises 02:14:46 0° 356° (N) 2,897 7.2 -16.9°
Reaches altitude 10° 02:17:03 10° 1° (N) 1,989 6.2 -17.2°
Maximum altitude 02:21:22 54° 80° (E) 752 3.2 -17.8°
Enters shadow 02:22:43 38° 134° (SE) 947 3.5 -18.0°
